| time (UTC) | temp F | wind direction | speed MPH | gust MPH | rain 1hr in | rain 24hr in | rain mn in | humidity % | barometer mb |
| 20260505061329 | 69 | 73 | 0.0 | 0.0 | 0.00 | 0.00 | 0.00 | 52 | 1005.0 |
| 20260505061230 | 69 | 73 | 0.0 | 0.0 | 0.00 | 0.00 | 0.00 | 53 | 1005.0 |
| 20260505061129 | 69 | 73 | 0.0 | 0.0 | 0.00 | 0.00 | 0.00 | 52 | 1005.0 |
| 20260505061030 | 69 | 73 | 0.0 | 0.0 | 0.00 | 0.00 | 0.00 | 52 | 1005.1 |
| 20260505060928 | 69 | 73 | 0.0 | 0.0 | 0.00 | 0.00 | 0.00 | 52 | 1005.1 |
| 20260505060831 | 70 | 73 | 0.0 | 0.0 | 0.00 | 0.00 | 0.00 | 53 | 1005.1 |
| 20260505060726 | 70 | 73 | 0.0 | 0.0 | 0.00 | 0.00 | 0.00 | 55 | 1005.1 |
| 20260505060618 | 70 | 73 | 0.0 | 0.0 | 0.00 | 0.00 | 0.00 | 51 | 1005.1 |
| 20260505060507 | 70 | 73 | 0.0 | 0.0 | 0.00 | 0.00 | 0.00 | 51 | 1005.0 |
| 20260505060408 | 70 | 73 | 0.0 | 1.0 | 0.00 | 0.00 | 0.00 | 51 | 1005.0 |
| 20260505060307 | 70 | 73 | 0.0 | 1.0 | 0.00 | 0.00 | 0.00 | 51 | 1005.0 |
| 20260505060201 | 70 | 73 | 0.0 | 1.0 | 0.00 | 0.00 | 0.00 | 52 | 1005.1 |
| 20260505060105 | 70 | 73 | 0.0 | 1.0 | 0.00 | 0.00 | 0.00 | 51 | 1005.1 |
| 20260505060002 | 70 | 73 | 0.0 | 2.0 | 0.00 | 0.00 | 0.00 | 50 | 1005.1 |
| 20260505055909 | 70 | 73 | 0.0 | 2.0 | 0.00 | 0.00 | 0.00 | 50 | 1005.2 |
| 20260505055802 | 70 | 73 | 0.0 | 2.0 | 0.00 | 0.00 | 0.00 | 50 | 1005.1 |
| 20260505055703 | 70 | 73 | 0.0 | 2.0 | 0.00 | 0.00 | 0.00 | 50 | 1005.1 |
| 20260505055601 | 70 | 73 | 0.0 | 2.0 | 0.00 | 0.00 | 0.00 | 49 | 1005.1 |
| 20260505055502 | 70 | 73 | 1.0 | 2.0 | 0.00 | 0.00 | 0.00 | 49 | 1005.1 |
| 20260505055407 | 71 | 71 | 0.0 | 3.0 | 0.00 | 0.00 | 0.00 | 49 | 1005.1 |
| 20260505055303 | 70 | 44 | 0.0 | 3.0 | 0.00 | 0.00 | 0.00 | 48 | 1005.1 |
| 20260505055201 | 71 | 20 | 1.0 | 3.0 | 0.00 | 0.00 | 0.00 | 48 | 1005.2 |
| 20260505055113 | 71 | 13 | 0.0 | 3.0 | 0.00 | 0.00 | 0.00 | 48 | 1005.1 |
| 20260505055057 | 71 | 17 | 0.0 | 3.0 | 0.00 | 0.00 | 0.00 | 48 | 1005.0 |
| 20260505055047 | 70 | 319 | 0.0 | 3.0 | 0.00 | 0.00 | 0.00 | 47 | 1004.9 |
| 20260505055026 | 70 | 319 | 1.0 | 3.0 | 0.00 | 0.00 | 0.00 | 47 | 1004.9 |
| 20260505054533 | 70 | 344 | 1.0 | 3.0 | 0.00 | 0.00 | 0.00 | 46 | 1004.9 |
| 20260505054521 | 71 | 58 | 2.0 | 3.0 | 0.00 | 0.00 | 0.00 | 45 | 1004.9 |
| 20260505054458 | 71 | 46 | 2.0 | 3.0 | 0.00 | 0.00 | 0.00 | 45 | 1004.8 |
| 20260505054445 | 71 | 67 | 1.0 | 3.0 | 0.00 | 0.00 | 0.00 | 45 | 1004.7 |
| 20260505054433 | 71 | 77 | 0.0 | 1.0 | 0.00 | 0.00 | 0.00 | 45 | 1004.6 |
| 20260505054419 | 71 | 150 | 0.0 | 1.0 | 0.00 | 0.00 | 0.00 | 44 | 1004.5 |
| 20260505053703 | 71 | 221 | 0.0 | 1.0 | 0.00 | 0.00 | 0.00 | 45 | 1004.4 |
| 20260505053331 | 71 | 262 | 0.0 | 1.0 | 0.00 | 0.00 | 0.00 | 45 | 1004.4 |
| 20260505053230 | 71 | 262 | 1.0 | 1.0 | 0.00 | 0.00 | 0.00 | 44 | 1004.4 |
| 20260505053130 | 71 | 261 | 1.0 | 1.0 | 0.00 | 0.00 | 0.00 | 44 | 1004.4 |
| 20260505053032 | 71 | 257 | 1.0 | 1.0 | 0.00 | 0.00 | 0.00 | 44 | 1004.4 |
| 20260505052929 | 71 | 260 | 0.0 | 1.0 | 0.00 | 0.00 | 0.00 | 44 | 1004.4 |
| 20260505052830 | 71 | 252 | 1.0 | 1.0 | 0.00 | 0.00 | 0.00 | 44 | 1004.4 |
| 20260505052729 | 71 | 250 | 1.0 | 1.0 | 0.00 | 0.00 | 0.00 | 45 | 1004.4 |
| 20260505052630 | 72 | 246 | 1.0 | 1.0 | 0.00 | 0.00 | 0.00 | 44 | 1004.5 |
| 20260505052611 | 72 | 244 | 1.0 | 1.0 | 0.00 | 0.00 | 0.00 | 44 | 1004.4 |
| 20260505052601 | 72 | 244 | 0.0 | 1.0 | 0.00 | 0.00 | 0.00 | 44 | 1004.5 |
| 20260505052312 | 72 | 246 | 0.0 | 1.0 | 0.00 | 0.00 | 0.00 | 45 | 1004.4 |
| 20260505052259 | 72 | 246 | 0.0 | 1.0 | 0.00 | 0.00 | 0.00 | 44 | 1004.5 |
| 20260505052248 | 72 | 246 | 0.0 | 1.0 | 0.00 | 0.00 | 0.00 | 44 | 1004.4 |
| 20260505052238 | 72 | 246 | 0.0 | 1.0 | 0.00 | 0.00 | 0.00 | 44 | 1004.5 |
| 20260505052216 | 72 | 246 | 0.0 | 1.0 | 0.00 | 0.00 | 0.00 | 44 | 1004.5 |
| 20260505052205 | 73 | 249 | 0.0 | 1.0 | 0.00 | 0.00 | 0.00 | 44 | 1004.5 |
| 20260505051449 | 73 | 257 | 0.0 | 1.0 | 0.00 | 0.00 | 0.00 | 43 | 1004.5 |
| 20260505051438 | 73 | 257 | 0.0 | 1.0 | 0.00 | 0.00 | 0.00 | 43 | 1004.5 |
| 20260505051204 | 73 | 257 | 0.0 | 1.0 | 0.00 | 0.00 | 0.00 | 42 | 1004.4 |
| 20260505051152 | 73 | 257 | 0.0 | 1.0 | 0.00 | 0.00 | 0.00 | 41 | 1004.4 |
| 20260505050602 | 73 | 257 | 1.0 | 2.0 | 0.00 | 0.00 | 0.00 | 41 | 1004.4 |
| 20260505050502 | 74 | 258 | 0.0 | 2.0 | 0.00 | 0.00 | 0.00 | 40 | 1004.4 |
| 20260505050401 | 74 | 258 | 0.0 | 2.0 | 0.00 | 0.00 | 0.00 | 41 | 1004.4 |
| 20260505050302 | 74 | 258 | 0.0 | 2.0 | 0.00 | 0.00 | 0.00 | 41 | 1004.4 |
| 20260505050202 | 74 | 258 | 0.0 | 2.0 | 0.00 | 0.00 | 0.00 | 40 | 1004.4 |
| 20260505050131 | 74 | 258 | 1.0 | 2.0 | 0.00 | 0.00 | 0.00 | 40 | 1004.4 |
| 20260505050117 | 74 | 258 | 2.0 | 2.0 | 0.00 | 0.00 | 0.00 | 40 | 1004.4 |
| 20260505050106 | 74 | 257 | 1.0 | 2.0 | 0.00 | 0.00 | 0.00 | 39 | 1004.4 |
| 20260505041733 | 76 | 173 | 0.0 | 3.0 | 0.00 | 0.00 | 0.00 | 36 | 1004.2 |
| 20260505041722 | 76 | 192 | 0.0 | 3.0 | 0.00 | 0.00 | 0.00 | 36 | 1004.2 |
| 20260505041405 | 76 | 189 | 1.0 | 3.0 | 0.00 | 0.00 | 0.00 | 37 | 1004.1 |
| 20260505041301 | 76 | 178 | 1.0 | 3.0 | 0.00 | 0.00 | 0.00 | 35 | 1004.1 |
| 20260505041202 | 76 | 158 | 1.0 | 3.0 | 0.00 | 0.00 | 0.00 | 36 | 1004.1 |
| 20260505041136 | 76 | 158 | 1.0 | 3.0 | 0.00 | 0.00 | 0.00 | 36 | 1004.1 |
| 20260505041122 | 76 | 186 | 0.0 | 3.0 | 0.00 | 0.00 | 0.00 | 36 | 1004.1 |
| 20260505041110 | 76 | 184 | 0.0 | 2.0 | 0.00 | 0.00 | 0.00 | 37 | 1004.1 |
| 20260505041047 | 76 | 184 | 0.0 | 2.0 | 0.00 | 0.00 | 0.00 | 37 | 1004.1 |
| 20260505040502 | 76 | 184 | 0.0 | 2.0 | 0.00 | 0.00 | 0.00 | 38 | 1004.1 |
| 20260505040406 | 76 | 184 | 0.0 | 2.0 | 0.00 | 0.00 | 0.00 | 38 | 1004.1 |
| 20260505040319 | 76 | 184 | 1.0 | 2.0 | 0.00 | 0.00 | 0.00 | 37 | 1004.1 |
| 20260505040202 | 76 | 184 | 1.0 | 2.0 | 0.00 | 0.00 | 0.00 | 37 | 1004.1 |
| 20260505040103 | 76 | 182 | 1.0 | 2.0 | 0.00 | 0.00 | 0.00 | 36 | 1004.0 |
| 20260505040006 | 76 | 187 | 0.0 | 2.0 | 0.00 | 0.00 | 0.00 | 36 | 1004.0 |
| 20260505035902 | 76 | 194 | 0.0 | 1.0 | 0.00 | 0.00 | 0.00 | 37 | 1004.1 |
| 20260505035807 | 76 | 203 | 0.0 | 1.0 | 0.00 | 0.00 | 0.00 | 38 | 1004.1 |
| 20260505035701 | 76 | 206 | 0.0 | 1.0 | 0.00 | 0.00 | 0.00 | 38 | 1004.0 |
| 20260505035601 | 76 | 206 | 0.0 | 1.0 | 0.00 | 0.00 | 0.00 | 38 | 1004.1 |
| 20260505035544 | 76 | 206 | 0.0 | 1.0 | 0.00 | 0.00 | 0.00 | 37 | 1004.0 |
| 20260505035535 | 76 | 206 | 0.0 | 1.0 | 0.00 | 0.00 | 0.00 | 37 | 1004.0 |
| 20260505035204 | 77 | 205 | 0.0 | 1.0 | 0.00 | 0.00 | 0.00 | 37 | 1004.0 |
| 20260505035105 | 77 | 205 | 0.0 | 1.0 | 0.00 | 0.00 | 0.00 | 37 | 1004.0 |
| 20260505035003 | 77 | 205 | 0.0 | 1.0 | 0.00 | 0.00 | 0.00 | 37 | 1004.0 |
| 20260505034906 | 77 | 205 | 0.0 | 1.0 | 0.00 | 0.00 | 0.00 | 38 | 1004.0 |
| 20260505034802 | 77 | 205 | 0.0 | 1.0 | 0.00 | 0.00 | 0.00 | 38 | 1004.0 |
| 20260505034727 | 77 | 205 | 0.0 | 1.0 | 0.00 | 0.00 | 0.00 | 39 | 1003.9 |
| 20260505034720 | 77 | 205 | 0.0 | 1.0 | 0.00 | 0.00 | 0.00 | 39 | 1003.9 |
| 20260505034405 | 77 | 205 | 0.0 | 1.0 | 0.00 | 0.00 | 0.00 | 39 | 1003.9 |
| 20260505034301 | 77 | 205 | 0.0 | 1.0 | 0.00 | 0.00 | 0.00 | 39 | 1003.9 |
| 20260505034202 | 77 | 205 | 0.0 | 1.0 | 0.00 | 0.00 | 0.00 | 39 | 1003.9 |
| 20260505034105 | 77 | 205 | 0.0 | 1.0 | 0.00 | 0.00 | 0.00 | 39 | 1003.9 |
| 20260505034041 | 78 | 207 | 0.0 | 1.0 | 0.00 | 0.00 | 0.00 | 39 | 1003.9 |
| 20260505034033 | 78 | 209 | 0.0 | 1.0 | 0.00 | 0.00 | 0.00 | 39 | 1003.9 |
| 20260505033701 | 78 | 209 | 0.0 | 1.0 | 0.00 | 0.00 | 0.00 | 39 | 1003.9 |
| 20260505033602 | 78 | 213 | 0.0 | 1.0 | 0.00 | 0.00 | 0.00 | 39 | 1003.9 |
| 20260505033501 | 78 | 214 | 0.0 | 1.0 | 0.00 | 0.00 | 0.00 | 39 | 1003.9 |
| 20260505033402 | 78 | 214 | 0.0 | 1.0 | 0.00 | 0.00 | 0.00 | 39 | 1003.9 |
| 20260505033326 | 78 | 214 | 0.0 | 1.0 | 0.00 | 0.00 | 0.00 | 38 | 1003.9 |
| 20260505033303 | 78 | 214 | 0.0 | 1.0 | 0.00 | 0.00 | 0.00 | 40 | 1003.8 |
| 20260505033252 | 78 | 214 | 0.0 | 1.0 | 0.00 | 0.00 | 0.00 | 39 | 1003.9 |
| 20260505032901 | 79 | 214 | 0.0 | 1.0 | 0.00 | 0.00 | 0.00 | 39 | 1003.9 |
| 20260505032813 | 79 | 214 | 0.0 | 1.0 | 0.00 | 0.00 | 0.00 | 38 | 1003.8 |
| 20260505032702 | 79 | 214 | 0.0 | 1.0 | 0.00 | 0.00 | 0.00 | 38 | 1003.8 |
| 20260505032604 | 79 | 215 | 0.0 | 1.0 | 0.00 | 0.00 | 0.00 | 37 | 1003.8 |
| 20260505032501 | 79 | 215 | 0.0 | 1.0 | 0.00 | 0.00 | 0.00 | 36 | 1003.9 |
| 20260505032446 | 80 | 218 | 0.0 | 1.0 | 0.00 | 0.00 | 0.00 | 36 | 1003.8 |
| 20260505032434 | 80 | 224 | 0.0 | 1.0 | 0.00 | 0.00 | 0.00 | 36 | 1003.8 |
| 20260505032131 | 80 | 228 | 0.0 | 1.0 | 0.00 | 0.00 | 0.00 | 35 | 1003.8 |
| 20260505032121 | 80 | 228 | 0.0 | 1.0 | 0.00 | 0.00 | 0.00 | 35 | 1003.8 |
| 20260505031809 | 81 | 233 | 0.0 | 1.0 | 0.00 | 0.00 | 0.00 | 35 | 1003.8 |
| 20260505031731 | 81 | 242 | 0.0 | 0.0 | 0.00 | 0.00 | 0.00 | 34 | 1003.8 |
| 20260505031721 | 81 | 242 | 0.0 | 0.0 | 0.00 | 0.00 | 0.00 | 34 | 1003.8 |
| 20260505031402 | 81 | 242 | 0.0 | 0.0 | 0.00 | 0.00 | 0.00 | 33 | 1003.8 |
| 20260505031308 | 81 | 242 | 0.0 | 1.0 | 0.00 | 0.00 | 0.00 | 33 | 1003.8 |
| 20260505031201 | 81 | 242 | 0.0 | 1.0 | 0.00 | 0.00 | 0.00 | 33 | 1003.8 |
| 20260505031117 | 82 | 242 | 0.0 | 1.0 | 0.00 | 0.00 | 0.00 | 33 | 1003.7 |
| 20260505031100 | 82 | 242 | 0.0 | 1.0 | 0.00 | 0.00 | 0.00 | 32 | 1003.7 |
| 20260505031050 | 82 | 242 | 0.0 | 1.0 | 0.00 | 0.00 | 0.00 | 31 | 1003.8 |
| 20260505030807 | 82 | 242 | 0.0 | 1.0 | 0.00 | 0.00 | 0.00 | 30 | 1003.8 |
| 20260505030756 | 82 | 242 | 0.0 | 1.0 | 0.00 | 0.00 | 0.00 | 30 | 1003.7 |
| 20260505030525 | 83 | 242 | 0.0 | 1.0 | 0.00 | 0.00 | 0.00 | 31 | 1003.7 |
| 20260505030202 | 83 | 248 | 0.0 | 1.0 | 0.00 | 0.00 | 0.00 | 29 | 1003.7 |
| 20260505030104 | 83 | 248 | 0.0 | 1.0 | 0.00 | 0.00 | 0.00 | 30 | 1003.7 |
| 20260505030002 | 83 | 248 | 0.0 | 1.0 | 0.00 | 0.00 | 0.00 | 29 | 1003.7 |
| 20260505025902 | 83 | 248 | 0.0 | 1.0 | 0.00 | 0.00 | 0.00 | 29 | 1003.6 |
| 20260505025801 | 83 | 248 | 0.0 | 1.0 | 0.00 | 0.00 | 0.00 | 29 | 1003.7 |
| 20260505025701 | 84 | 255 | 0.0 | 1.0 | 0.00 | 0.00 | 0.00 | 28 | 1003.7 |
| 20260505025605 | 84 | 255 | 0.0 | 1.0 | 0.00 | 0.00 | 0.00 | 28 | 1003.6 |
| 20260505025502 | 84 | 255 | 0.0 | 1.0 | 0.00 | 0.00 | 0.00 | 28 | 1003.6 |
| 20260505025404 | 84 | 255 | 0.0 | 1.0 | 0.00 | 0.00 | 0.00 | 28 | 1003.6 |
| 20260505025301 | 84 | 255 | 0.0 | 1.0 | 0.00 | 0.00 | 0.00 | 28 | 1003.6 |
| 20260505025156 | 84 | 255 | 0.0 | 1.0 | 0.00 | 0.00 | 0.00 | 28 | 1003.6 |
| 20260505025056 | 84 | 255 | 0.0 | 1.0 | 0.00 | 0.00 | 0.00 | 28 | 1003.6 |
| 20260505024956 | 85 | 255 | 0.0 | 1.0 | 0.00 | 0.00 | 0.00 | 27 | 1003.6 |
| 20260505024854 | 85 | 255 | 0.0 | 1.0 | 0.00 | 0.00 | 0.00 | 28 | 1003.6 |
| 20260505024755 | 85 | 255 | 0.0 | 1.0 | 0.00 | 0.00 | 0.00 | 27 | 1003.6 |
| 20260505024652 | 85 | 259 | 0.0 | 1.0 | 0.00 | 0.00 | 0.00 | 26 | 1003.4 |
| 20260505024551 | 85 | 259 | 0.0 | 2.0 | 0.00 | 0.00 | 0.00 | 27 | 1003.6 |
| 20260505024446 | 85 | 259 | 0.0 | 2.0 | 0.00 | 0.00 | 0.00 | 27 | 1003.6 |
| 20260505024421 | 85 | 275 | 0.0 | 2.0 | 0.00 | 0.00 | 0.00 | 26 | 1003.4 |
| 20260505024358 | 85 | 288 | 0.0 | 2.0 | 0.00 | 0.00 | 0.00 | 25 | 1003.4 |
| 20260505024032 | 85 | 300 | 0.0 | 2.0 | 0.00 | 0.00 | 0.00 | 25 | 1003.4 |
| 20260505023933 | 86 | 300 | 0.0 | 2.0 | 0.00 | 0.00 | 0.00 | 25 | 1003.6 |
| 20260505023829 | 86 | 299 | 1.0 | 2.0 | 0.00 | 0.00 | 0.00 | 25 | 1003.4 |
| 20260505023730 | 86 | 297 | 0.0 | 2.0 | 0.00 | 0.00 | 0.00 | 24 | 1003.4 |
| 20260505023630 | 86 | 266 | 0.0 | 1.0 | 0.00 | 0.00 | 0.00 | 23 | 1003.4 |
| 20260505023531 | 86 | 302 | 0.0 | 2.0 | 0.00 | 0.00 | 0.00 | 24 | 1003.6 |
| 20260505023432 | 86 | 302 | 0.0 | 2.0 | 0.00 | 0.00 | 0.00 | 24 | 1003.6 |
| 20260505023331 | 86 | 302 | 0.0 | 2.0 | 0.00 | 0.00 | 0.00 | 23 | 1003.6 |
| 20260505023230 | 86 | 302 | 0.0 | 2.0 | 0.00 | 0.00 | 0.00 | 23 | 1003.4 |
| 20260505023141 | 86 | 302 | 0.0 | 2.0 | 0.00 | 0.00 | 0.00 | 23 | 1003.4 |
| 20260505023125 | 86 | 300 | 0.0 | 2.0 | 0.00 | 0.00 | 0.00 | 23 | 1003.4 |
| 20260505023116 | 86 | 296 | 1.0 | 2.0 | 0.00 | 0.00 | 0.00 | 23 | 1003.4 |
| 20260505022720 | 87 | 307 | 1.0 | 2.0 | 0.00 | 0.00 | 0.00 | 23 | 1003.4 |
| 20260505022617 | 87 | 288 | 0.0 | 2.0 | 0.00 | 0.00 | 0.00 | 24 | 1003.4 |
| 20260505022518 | 87 | 313 | 0.0 | 2.0 | 0.00 | 0.00 | 0.00 | 24 | 1003.4 |
| 20260505022417 | 87 | 314 | 1.0 | 2.0 | 0.00 | 0.00 | 0.00 | 23 | 1003.4 |
| 20260505022313 | 87 | 327 | 1.0 | 2.0 | 0.00 | 0.00 | 0.00 | 23 | 1003.4 |
| 20260505022211 | 87 | 294 | 1.0 | 2.0 | 0.00 | 0.00 | 0.00 | 23 | 1003.4 |
| 20260505022111 | 87 | 305 | 0.0 | 1.0 | 0.00 | 0.00 | 0.00 | 23 | 1003.6 |
| 20260505022008 | 87 | 306 | 0.0 | 1.0 | 0.00 | 0.00 | 0.00 | 23 | 1003.4 |
| 20260505021936 | 87 | 302 | 0.0 | 1.0 | 0.00 | 0.00 | 0.00 | 23 | 1003.4 |
| 20260505021923 | 87 | 304 | 1.0 | 3.0 | 0.00 | 0.00 | 0.00 | 23 | 1003.6 |
| 20260505021901 | 87 | 290 | 1.0 | 3.0 | 0.00 | 0.00 | 0.00 | 23 | 1003.4 |
| 20260505021848 | 87 | 327 | 0.0 | 4.0 | 0.00 | 0.00 | 0.00 | 23 | 1003.4 |
| 20260505021305 | 87 | 352 | 0.0 | 4.0 | 0.00 | 0.00 | 0.00 | 23 | 1003.4 |
| 20260505021201 | 87 | 0 | 0.0 | 4.0 | 0.00 | 0.00 | 0.00 | 23 | 1003.4 |
| 20260505021107 | 87 | 0 | 1.0 | 4.0 | 0.00 | 0.00 | 0.00 | 23 | 1003.4 |
| 20260505021001 | 87 | 5 | 1.0 | 4.0 | 0.00 | 0.00 | 0.00 | 22 | 1003.4 |
| 20260505020945 | 87 | 352 | 1.0 | 4.0 | 0.00 | 0.00 | 0.00 | 22 | 1003.6 |
| 20260505020932 | 87 | 329 | 2.0 | 4.0 | 0.00 | 0.00 | 0.00 | 23 | 1003.4 |
| 20260505020601 | 88 | 20 | 2.0 | 4.0 | 0.00 | 0.00 | 0.00 | 22 | 1003.4 |
| 20260505020506 | 88 | 352 | 2.0 | 4.0 | 0.00 | 0.00 | 0.00 | 22 | 1003.4 |
| 20260505020401 | 88 | 19 | 1.0 | 3.0 | 0.00 | 0.00 | 0.00 | 21 | 1003.6 |
| 20260505020305 | 88 | 339 | 1.0 | 3.0 | 0.00 | 0.00 | 0.00 | 22 | 1003.6 |
| 20260505020214 | 88 | 318 | 1.0 | 4.0 | 0.00 | 0.00 | 0.00 | 22 | 1003.6 |
| 20260505020159 | 88 | 307 | 1.0 | 4.0 | 0.00 | 0.00 | 0.00 | 22 | 1003.6 |
| 20260505020146 | 88 | 348 | 1.0 | 4.0 | 0.00 | 0.00 | 0.00 | 22 | 1003.6 |
| 20260505015842 | 88 | 313 | 1.0 | 8.0 | 0.00 | 0.00 | 0.00 | 22 | 1003.6 |
| 20260505015820 | 88 | 352 | 2.0 | 8.0 | 0.00 | 0.00 | 0.00 | 22 | 1003.6 |
| 20260505015504 | 88 | 30 | 1.0 | 8.0 | 0.00 | 0.00 | 0.00 | 22 | 1003.7 |
| 20260505015436 | 88 | 314 | 2.0 | 8.0 | 0.00 | 0.00 | 0.00 | 22 | 1003.6 |
| 20260505015421 | 88 | 306 | 2.0 | 8.0 | 0.00 | 0.00 | 0.00 | 21 | 1003.7 |
| 20260505015357 | 88 | 302 | 2.0 | 8.0 | 0.00 | 0.00 | 0.00 | 21 | 1003.7 |
| 20260505015345 | 88 | 337 | 3.0 | 8.0 | 0.00 | 0.00 | 0.00 | 22 | 1003.6 |
| 20260505014836 | 88 | 330 | 2.0 | 4.0 | 0.00 | 0.00 | 0.00 | 22 | 1003.7 |
| 20260505014812 | 88 | 0 | 1.0 | 4.0 | 0.00 | 0.00 | 0.00 | 22 | 1003.7 |
| 20260505014800 | 88 | 263 | 1.0 | 4.0 | 0.00 | 0.00 | 0.00 | 22 | 1003.8 |
| 20260505014529 | 88 | 350 | 1.0 | 4.0 | 0.00 | 0.00 | 0.00 | 22 | 1003.8 |
| 20260505014242 | 88 | 305 | 2.0 | 4.0 | 0.00 | 0.00 | 0.00 | 21 | 1003.8 |
| 20260505014232 | 88 | 10 | 2.0 | 4.0 | 0.00 | 0.00 | 0.00 | 22 | 1003.8 |
| 20260505014208 | 88 | 315 | 2.0 | 4.0 | 0.00 | 0.00 | 0.00 | 22 | 1003.8 |
| 20260505013934 | 88 | 286 | 1.0 | 4.0 | 0.00 | 0.00 | 0.00 | 22 | 1003.8 |
| 20260505013601 | 88 | 277 | 2.0 | 4.0 | 0.00 | 0.00 | 0.00 | 23 | 1003.9 |
| 20260505013503 | 88 | 343 | 2.0 | 4.0 | 0.00 | 0.00 | 0.00 | 22 | 1003.8 |
| 20260505013402 | 88 | 352 | 2.0 | 4.0 | 0.00 | 0.00 | 0.00 | 22 | 1003.8 |
| 20260505013301 | 89 | 5 | 2.0 | 4.0 | 0.00 | 0.00 | 0.00 | 22 | 1003.9 |
| 20260505013203 | 89 | 36 | 2.0 | 4.0 | 0.00 | 0.00 | 0.00 | 21 | 1003.9 |
| 20260505013109 | 89 | 352 | 1.0 | 4.0 | 0.00 | 0.00 | 0.00 | 21 | 1003.9 |
| 20260505013000 | 88 | 11 | 2.0 | 4.0 | 0.00 | 0.00 | 0.00 | 21 | 1003.9 |
| 20260505012901 | 89 | 286 | 3.0 | 4.0 | 0.00 | 0.00 | 0.00 | 21 | 1003.9 |
| 20260505012802 | 89 | 294 | 2.0 | 4.0 | 0.00 | 0.00 | 0.00 | 21 | 1003.8 |
| 20260505012701 | 89 | 279 | 2.0 | 4.0 | 0.00 | 0.00 | 0.00 | 21 | 1003.9 |
| 20260505012600 | 89 | 350 | 2.0 | 4.0 | 0.00 | 0.00 | 0.00 | 22 | 1003.9 |
| 20260505012501 | 89 | 5 | 2.0 | 4.0 | 0.00 | 0.00 | 0.00 | 22 | 1003.9 |
| 20260505012401 | 89 | 309 | 1.0 | 4.0 | 0.00 | 0.00 | 0.00 | 22 | 1003.9 |
| 20260505012301 | 89 | 34 | 2.0 | 4.0 | 0.00 | 0.00 | 0.00 | 22 | 1004.0 |
| 20260505012203 | 89 | 295 | 1.0 | 4.0 | 0.00 | 0.00 | 0.00 | 22 | 1004.0 |
| 20260505012124 | 89 | 346 | 1.0 | 5.0 | 0.00 | 0.00 | 0.00 | 22 | 1004.0 |
| 20260505012110 | 89 | 300 | 1.0 | 5.0 | 0.00 | 0.00 | 0.00 | 21 | 1004.0 |
| 20260505012059 | 89 | 321 | 2.0 | 5.0 | 0.00 | 0.00 | 0.00 | 22 | 1004.0 |
| 20260505011816 | 89 | 329 | 2.0 | 5.0 | 0.00 | 0.00 | 0.00 | 23 | 1004.0 |
| 20260505011454 | 89 | 273 | 2.0 | 5.0 | 0.00 | 0.00 | 0.00 | 23 | 1004.1 |
| 20260505011353 | 89 | 326 | 3.0 | 5.0 | 0.00 | 0.00 | 0.00 | 23 | 1004.1 |
| 20260505011254 | 89 | 307 | 3.0 | 5.0 | 0.00 | 0.00 | 0.00 | 23 | 1004.2 |
| 20260505011152 | 89 | 346 | 2.0 | 5.0 | 0.00 | 0.00 | 0.00 | 23 | 1004.1 |
| 20260505011054 | 89 | 341 | 2.0 | 5.0 | 0.00 | 0.00 | 0.00 | 23 | 1004.1 |
| 20260505010951 | 89 | 5 | 1.0 | 4.0 | 0.00 | 0.00 | 0.00 | 24 | 1004.2 |
| 20260505010853 | 89 | 10 | 2.0 | 3.0 | 0.00 | 0.00 | 0.00 | 23 | 1004.2 |
| 20260505010743 | 89 | 351 | 2.0 | 3.0 | 0.00 | 0.00 | 0.00 | 22 | 1004.1 |
| 20260505010644 | 89 | 15 | 1.0 | 3.0 | 0.00 | 0.00 | 0.00 | 21 | 1004.1 |
| 20260505010537 | 89 | 0 | 1.0 | 3.0 | 0.00 | 0.00 | 0.00 | 21 | 1004.1 |
| 20260505010436 | 89 | 350 | 1.0 | 3.0 | 0.00 | 0.00 | 0.00 | 22 | 1004.1 |
| 20260505010336 | 89 | 38 | 2.0 | 3.0 | 0.00 | 0.00 | 0.00 | 22 | 1004.1 |
| 20260505010239 | 89 | 49 | 1.0 | 3.0 | 0.00 | 0.00 | 0.00 | 22 | 1004.1 |
| 20260505010137 | 89 | 100 | 0.0 | 3.0 | 0.00 | 0.00 | 0.00 | 21 | 1004.1 |
| 20260505010034 | 89 | 9 | 1.0 | 4.0 | 0.00 | 0.00 | 0.00 | 21 | 1004.1 |
| 20260505005933 | 89 | 61 | 1.0 | 4.0 | 0.00 | 0.00 | 0.00 | 21 | 1004.1 |
| 20260505005839 | 89 | 64 | 2.0 | 4.0 | 0.00 | 0.00 | 0.00 | 21 | 1004.1 |
| 20260505005731 | 89 | 52 | 2.0 | 4.0 | 0.00 | 0.00 | 0.00 | 22 | 1004.1 |
| 20260505005631 | 89 | 5 | 2.0 | 4.0 | 0.00 | 0.00 | 0.00 | 21 | 1004.1 |
| 20260505005601 | 89 | 105 | 1.0 | 4.0 | 0.00 | 0.00 | 0.00 | 21 | 1004.1 |
| 20260505005550 | 89 | 58 | 1.0 | 4.0 | 0.00 | 0.00 | 0.00 | 21 | 1004.1 |
| 20260505005229 | 89 | 227 | 1.0 | 4.0 | 0.00 | 0.00 | 0.00 | 22 | 1004.2 |
| 20260505005130 | 89 | 162 | 1.0 | 4.0 | 0.00 | 0.00 | 0.00 | 22 | 1004.2 |
| 20260505005101 | 89 | 188 | 1.0 | 4.0 | 0.00 | 0.00 | 0.00 | 21 | 1004.2 |
| 20260505005049 | 89 | 190 | 1.0 | 4.0 | 0.00 | 0.00 | 0.00 | 22 | 1004.2 |
| 20260505004729 | 88 | 165 | 1.0 | 4.0 | 0.00 | 0.00 | 0.00 | 22 | 1004.2 |
| 20260505004629 | 88 | 65 | 2.0 | 4.0 | 0.00 | 0.00 | 0.00 | 21 | 1004.2 |
| 20260505004529 | 88 | 40 | 3.0 | 5.0 | 0.00 | 0.00 | 0.00 | 22 | 1004.3 |
| 20260505004431 | 88 | 352 | 3.0 | 5.0 | 0.00 | 0.00 | 0.00 | 22 | 1004.3 |
| 20260505004329 | 88 | 352 | 2.0 | 5.0 | 0.00 | 0.00 | 0.00 | 23 | 1004.3 |
| 20260505004230 | 88 | 336 | 2.0 | 5.0 | 0.00 | 0.00 | 0.00 | 23 | 1004.3 |
| 20260505004129 | 88 | 352 | 2.0 | 5.0 | 0.00 | 0.00 | 0.00 | 23 | 1004.3 |
| 20260505004029 | 88 | 352 | 3.0 | 5.0 | 0.00 | 0.00 | 0.00 | 23 | 1004.3 |
| 20260505003929 | 88 | 342 | 3.0 | 5.0 | 0.00 | 0.00 | 0.00 | 24 | 1004.3 |
| 20260505003831 | 88 | 338 | 3.0 | 5.0 | 0.00 | 0.00 | 0.00 | 24 | 1004.4 |
| 20260505003754 | 88 | 321 | 3.0 | 5.0 | 0.00 | 0.00 | 0.00 | 23 | 1004.3 |
| 20260505003729 | 88 | 315 | 2.0 | 5.0 | 0.00 | 0.00 | 0.00 | 24 | 1004.4 |
| 20260505003717 | 88 | 20 | 2.0 | 5.0 | 0.00 | 0.00 | 0.00 | 25 | 1004.4 |
| 20260505003706 | 88 | 352 | 2.0 | 5.0 | 0.00 | 0.00 | 0.00 | 24 | 1004.3 |
| 20260505003434 | 88 | 90 | 3.0 | 7.0 | 0.00 | 0.00 | 0.00 | 23 | 1004.3 |
| 20260505003144 | 89 | 11 | 3.0 | 7.0 | 0.00 | 0.00 | 0.00 | 23 | 1004.3 |
| 20260505002845 | 89 | 60 | 2.0 | 7.0 | 0.00 | 0.00 | 0.00 | 22 | 1004.4 |
| 20260505002831 | 89 | 162 | 2.0 | 7.0 | 0.00 | 0.00 | 0.00 | 22 | 1004.4 |
| 20260505002808 | 89 | 85 | 2.0 | 7.0 | 0.00 | 0.00 | 0.00 | 22 | 1004.4 |
| 20260505002420 | 89 | 128 | 3.0 | 7.0 | 0.00 | 0.00 | 0.00 | 22 | 1004.4 |
| 20260505002319 | 89 | 238 | 1.0 | 4.0 | 0.00 | 0.00 | 0.00 | 22 | 1004.4 |
| 20260505002219 | 89 | 309 | 1.0 | 4.0 | 0.00 | 0.00 | 0.00 | 22 | 1004.4 |
| 20260505002117 | 89 | 269 | 2.0 | 4.0 | 0.00 | 0.00 | 0.00 | 22 | 1004.4 |
| 20260505002022 | 89 | 352 | 2.0 | 5.0 | 0.00 | 0.00 | 0.00 | 23 | 1004.4 |
| 20260505002003 | 89 | 310 | 2.0 | 6.0 | 0.00 | 0.00 | 0.00 | 24 | 1004.5 |
| 20260505001952 | 88 | 9 | 1.0 | 6.0 | 0.00 | 0.00 | 0.00 | 25 | 1004.4 |
| 20260505001940 | 88 | 223 | 1.0 | 6.0 | 0.00 | 0.00 | 0.00 | 23 | 1004.4 |
| 20260505001659 | 88 | 234 | 1.0 | 6.0 | 0.00 | 0.00 | 0.00 | 24 | 1004.5 |
| 20260505001425 | 88 | 305 | 2.0 | 6.0 | 0.00 | 0.00 | 0.00 | 24 | 1004.5 |
| 20260505001414 | 88 | 48 | 4.0 | 6.0 | 0.00 | 0.00 | 0.00 | 25 | 1004.5 |
| 20260505001126 | 88 | 350 | 3.0 | 5.0 | 0.00 | 0.00 | 0.00 | 25 | 1004.5 |
| 20260505000805 | 88 | 74 | 1.0 | 6.0 | 0.00 | 0.00 | 0.00 | 24 | 1004.5 |
| 20260505000703 | 88 | 84 | 2.0 | 6.0 | 0.00 | 0.00 | 0.00 | 24 | 1004.5 |
| 20260505000603 | 88 | 286 | 2.0 | 6.0 | 0.00 | 0.00 | 0.00 | 24 | 1004.5 |
| 20260505000502 | 88 | 248 | 2.0 | 6.0 | 0.00 | 0.00 | 0.00 | 24 | 1004.5 |
| 20260505000405 | 88 | 255 | 2.0 | 6.0 | 0.00 | 0.00 | 0.00 | 24 | 1004.5 |
| 20260505000303 | 88 | 261 | 2.0 | 6.0 | 0.00 | 0.00 | 0.00 | 24 | 1004.6 |
| 20260505000204 | 88 | 289 | 4.0 | 6.0 | 0.00 | 0.00 | 0.00 | 24 | 1004.5 |
| 20260505000104 | 88 | 302 | 4.0 | 6.0 | 0.00 | 0.00 | 0.00 | 25 | 1004.5 |
| 20260505000003 | 88 | 5 | 3.0 | 6.0 | 0.00 | 0.00 | 0.00 | 25 | 1004.5 |
| 20260504235901 | 88 | 28 | 2.0 | 4.0 | 0.00 | 0.00 | 0.00 | 25 | 1004.5 |
| 20260504235803 | 88 | 62 | 2.0 | 4.0 | 0.00 | 0.00 | 0.00 | 26 | 1004.5 |
| 20260504235728 | 88 | 69 | 2.0 | 4.0 | 0.00 | 0.00 | 0.00 | 26 | 1004.6 |
| 20260504235705 | 88 | 61 | 2.0 | 4.0 | 0.00 | 0.00 | 0.00 | 25 | 1004.5 |
| 20260504235653 | 88 | 38 | 2.0 | 4.0 | 0.00 | 0.00 | 0.00 | 24 | 1004.5 |
| 20260504235301 | 88 | 57 | 2.0 | 4.0 | 0.00 | 0.00 | 0.00 | 25 | 1004.6 |
| 20260504235202 | 88 | 101 | 2.0 | 4.0 | 0.00 | 0.00 | 0.00 | 24 | 1004.5 |
| 20260504235104 | 88 | 39 | 3.0 | 7.0 | 0.00 | 0.00 | 0.00 | 25 | 1004.5 |
| 20260504235005 | 88 | 53 | 3.0 | 7.0 | 0.00 | 0.00 | 0.00 | 25 | 1004.6 |
| 20260504234902 | 88 | 62 | 3.0 | 7.0 | 0.00 | 0.00 | 0.00 | 24 | 1004.6 |
| 20260504234803 | 88 | 94 | 2.0 | 7.0 | 0.00 | 0.00 | 0.00 | 24 | 1004.6 |
| 20260504234702 | 88 | 104 | 2.0 | 7.0 | 0.00 | 0.00 | 0.00 | 25 | 1004.5 |
| 20260504234602 | 88 | 127 | 3.0 | 7.0 | 0.00 | 0.00 | 0.00 | 25 | 1004.5 |
| 20260504234501 | 88 | 125 | 2.0 | 7.0 | 0.00 | 0.00 | 0.00 | 24 | 1004.5 |
| 20260504234401 | 88 | 115 | 3.0 | 7.0 | 0.00 | 0.00 | 0.00 | 25 | 1004.5 |
| 20260504234300 | 88 | 100 | 3.0 | 7.0 | 0.00 | 0.00 | 0.00 | 24 | 1004.5 |
| 20260504234205 | 88 | 66 | 2.0 | 7.0 | 0.00 | 0.00 | 0.00 | 25 | 1004.6 |
| 20260504234132 | 88 | 84 | 2.0 | 6.0 | 0.00 | 0.00 | 0.00 | 25 | 1004.6 |
| 20260504234117 | 88 | 115 | 3.0 | 6.0 | 0.00 | 0.00 | 0.00 | 25 | 1004.6 |
| 20260504234106 | 88 | 352 | 3.0 | 6.0 | 0.00 | 0.00 | 0.00 | 25 | 1004.6 |
| 20260504234053 | 88 | 61 | 2.0 | 6.0 | 0.00 | 0.00 | 0.00 | 25 | 1004.6 |
| 20260504233500 | 88 | 63 | 2.0 | 8.0 | 0.00 | 0.00 | 0.00 | 26 | 1004.6 |
| 20260504233402 | 88 | 9 | 2.0 | 8.0 | 0.00 | 0.00 | 0.00 | 25 | 1004.6 |
| 20260504233302 | 88 | 53 | 3.0 | 8.0 | 0.00 | 0.00 | 0.00 | 26 | 1004.5 |
| 20260504233204 | 87 | 319 | 3.0 | 8.0 | 0.00 | 0.00 | 0.00 | 25 | 1004.5 |
| 20260504233104 | 88 | 0 | 4.0 | 8.0 | 0.00 | 0.00 | 0.00 | 25 | 1004.5 |
| 20260504233001 | 88 | 0 | 4.0 | 8.0 | 0.00 | 0.00 | 0.00 | 25 | 1004.5 |
| 20260504232938 | 88 | 0 | 4.0 | 8.0 | 0.00 | 0.00 | 0.00 | 24 | 1004.6 |
| 20260504232925 | 88 | 352 | 2.0 | 8.0 | 0.00 | 0.00 | 0.00 | 26 | 1004.5 |
| 20260504232636 | 88 | 352 | 3.0 | 6.0 | 0.00 | 0.00 | 0.00 | 24 | 1004.5 |
| 20260504232624 | 88 | 34 | 4.0 | 6.0 | 0.00 | 0.00 | 0.00 | 24 | 1004.5 |
| 20260504232613 | 88 | 347 | 3.0 | 6.0 | 0.00 | 0.00 | 0.00 | 24 | 1004.6 |
| 20260504232601 | 88 | 5 | 2.0 | 5.0 | 0.00 | 0.00 | 0.00 | 24 | 1004.5 |
| 20260504232520 | 88 | 32 | 1.0 | 6.0 | 0.00 | 0.00 | 0.00 | 25 | 1004.6 |
| 20260504232455 | 88 | 24 | 1.0 | 6.0 | 0.00 | 0.00 | 0.00 | 25 | 1004.5 |
| 20260504232225 | 88 | 221 | 2.0 | 6.0 | 0.00 | 0.00 | 0.00 | 24 | 1004.6 |
| 20260504231951 | 88 | 322 | 1.0 | 6.0 | 0.00 | 0.00 | 0.00 | 24 | 1004.6 |
| 20260504231709 | 88 | 26 | 3.0 | 6.0 | 0.00 | 0.00 | 0.00 | 24 | 1004.6 |
| 20260504231141 | 88 | 32 | 2.0 | 6.0 | 0.00 | 0.00 | 0.00 | 25 | 1004.6 |
| 20260504231028 | 88 | 352 | 2.0 | 6.0 | 0.00 | 0.00 | 0.00 | 24 | 1004.6 |
| 20260504230930 | 88 | 316 | 3.0 | 6.0 | 0.00 | 0.00 | 0.00 | 25 | 1004.7 |
| 20260504230856 | 88 | 44 | 3.0 | 6.0 | 0.00 | 0.00 | 0.00 | 25 | 1004.7 |
| 20260504230841 | 88 | 88 | 2.0 | 6.0 | 0.00 | 0.00 | 0.00 | 26 | 1004.7 |
| 20260504230829 | 88 | 53 | 1.0 | 5.0 | 0.00 | 0.00 | 0.00 | 26 | 1004.7 |
| 20260504230804 | 88 | 288 | 2.0 | 5.0 | 0.00 | 0.00 | 0.00 | 25 | 1004.6 |
| 20260504230534 | 88 | 85 | 3.0 | 5.0 | 0.00 | 0.00 | 0.00 | 26 | 1004.7 |
| 20260504230520 | 88 | 5 | 2.0 | 5.0 | 0.00 | 0.00 | 0.00 | 25 | 1004.7 |
| 20260504225932 | 88 | 317 | 4.0 | 5.0 | 0.00 | 0.00 | 0.00 | 25 | 1004.8 |
| 20260504225828 | 88 | 29 | 3.0 | 5.0 | 0.00 | 0.00 | 0.00 | 25 | 1004.8 |
| 20260504225733 | 88 | 330 | 2.0 | 8.0 | 0.00 | 0.00 | 0.00 | 26 | 1004.8 |
| 20260504225652 | 88 | 25 | 1.0 | 9.0 | 0.00 | 0.00 | 0.00 | 25 | 1004.7 |
| 20260504225626 | 88 | 17 | 2.0 | 9.0 | 0.00 | 0.00 | 0.00 | 25 | 1004.7 |
| 20260504225616 | 88 | 209 | 3.0 | 9.0 | 0.00 | 0.00 | 0.00 | 24 | 1004.7 |
| 20260504225605 | 88 | 70 | 2.0 | 9.0 | 0.00 | 0.00 | 0.00 | 24 | 1004.8 |
| 20260504225551 | 88 | 77 | 2.0 | 9.0 | 0.00 | 0.00 | 0.00 | 24 | 1004.8 |
| 20260504224932 | 88 | 20 | 3.0 | 9.0 | 0.00 | 0.00 | 0.00 | 25 | 1004.8 |
| 20260504224831 | 88 | 346 | 4.0 | 9.0 | 0.00 | 0.00 | 0.00 | 24 | 1004.8 |
| 20260504224731 | 88 | 5 | 3.0 | 9.0 | 0.00 | 0.00 | 0.00 | 25 | 1004.8 |
| 20260504224630 | 88 | 346 | 2.0 | 5.0 | 0.00 | 0.00 | 0.00 | 26 | 1004.8 |
| 20260504224531 | 88 | 266 | 1.0 | 4.0 | 0.00 | 0.00 | 0.00 | 25 | 1004.7 |
| 20260504224429 | 88 | 254 | 1.0 | 4.0 | 0.00 | 0.00 | 0.00 | 26 | 1004.8 |
| 20260504224330 | 88 | 327 | 2.0 | 4.0 | 0.00 | 0.00 | 0.00 | 25 | 1004.8 |
| 20260504224229 | 87 | 306 | 2.0 | 5.0 | 0.00 | 0.00 | 0.00 | 25 | 1004.8 |
| 20260504224130 | 87 | 260 | 2.0 | 6.0 | 0.00 | 0.00 | 0.00 | 25 | 1004.8 |
| 20260504224028 | 87 | 5 | 2.0 | 6.0 | 0.00 | 0.00 | 0.00 | 27 | 1004.9 |
| 20260504223930 | 87 | 64 | 2.0 | 6.0 | 0.00 | 0.00 | 0.00 | 25 | 1004.9 |
| 20260504223855 | 87 | 184 | 2.0 | 7.0 | 0.00 | 0.00 | 0.00 | 26 | 1004.9 |
| 20260504223844 | 87 | 252 | 2.0 | 7.0 | 0.00 | 0.00 | 0.00 | 25 | 1005.0 |
| 20260504223831 | 87 | 248 | 2.0 | 7.0 | 0.00 | 0.00 | 0.00 | 26 | 1005.0 |
| 20260504223809 | 87 | 19 | 2.0 | 7.0 | 0.00 | 0.00 | 0.00 | 25 | 1005.0 |
| 20260504223229 | 87 | 330 | 2.0 | 7.0 | 0.00 | 0.00 | 0.00 | 26 | 1005.1 |
| 20260504223133 | 87 | 79 | 3.0 | 7.0 | 0.00 | 0.00 | 0.00 | 25 | 1005.0 |
| 20260504223029 | 87 | 68 | 3.0 | 7.0 | 0.00 | 0.00 | 0.00 | 25 | 1005.0 |
| 20260504222931 | 87 | 13 | 2.0 | 7.0 | 0.00 | 0.00 | 0.00 | 25 | 1005.1 |
| 20260504222829 | 87 | 74 | 3.0 | 5.0 | 0.00 | 0.00 | 0.00 | 25 | 1005.1 |
| 20260504222733 | 87 | 83 | 3.0 | 5.0 | 0.00 | 0.00 | 0.00 | 25 | 1005.1 |
| 20260504222632 | 87 | 40 | 3.0 | 7.0 | 0.00 | 0.00 | 0.00 | 27 | 1005.2 |
| 20260504222604 | 87 | 352 | 2.0 | 7.0 | 0.00 | 0.00 | 0.00 | 25 | 1005.1 |
| 20260504222552 | 87 | 9 | 1.0 | 7.0 | 0.00 | 0.00 | 0.00 | 25 | 1005.2 |
| 20260504222229 | 87 | 264 | 2.0 | 7.0 | 0.00 | 0.00 | 0.00 | 25 | 1005.2 |
| 20260504222130 | 87 | 260 | 2.0 | 7.0 | 0.00 | 0.00 | 0.00 | 25 | 1005.2 |
| 20260504222057 | 87 | 274 | 2.0 | 7.0 | 0.00 | 0.00 | 0.00 | 25 | 1005.2 |
| 20260504222044 | 87 | 287 | 3.0 | 7.0 | 0.00 | 0.00 | 0.00 | 26 | 1005.2 |
| 20260504221724 | 86 | 336 | 2.0 | 7.0 | 0.00 | 0.00 | 0.00 | 26 | 1005.3 |
| 20260504221621 | 86 | 352 | 2.0 | 6.0 | 0.00 | 0.00 | 0.00 | 25 | 1005.3 |
| 20260504221523 | 86 | 53 | 2.0 | 8.0 | 0.00 | 0.00 | 0.00 | 25 | 1005.3 |
| 20260504221447 | 86 | 47 | 2.0 | 8.0 | 0.00 | 0.00 | 0.00 | 25 | 1005.3 |
| 20260504221437 | 86 | 5 | 2.0 | 8.0 | 0.00 | 0.00 | 0.00 | 27 | 1005.4 |
| 20260504221118 | 86 | 67 | 2.0 | 9.0 | 0.00 | 0.00 | 0.00 | 26 | 1005.4 |
| 20260504221047 | 86 | 46 | 3.0 | 9.0 | 0.00 | 0.00 | 0.00 | 25 | 1005.4 |
| 20260504221034 | 86 | 62 | 2.0 | 9.0 | 0.00 | 0.00 | 0.00 | 25 | 1005.4 |
| 20260504220714 | 86 | 115 | 3.0 | 9.0 | 0.00 | 0.00 | 0.00 | 25 | 1005.4 |
| 20260504220614 | 87 | 86 | 3.0 | 9.0 | 0.00 | 0.00 | 0.00 | 26 | 1005.4 |
| 20260504220510 | 87 | 338 | 2.0 | 9.0 | 0.00 | 0.00 | 0.00 | 25 | 1005.5 |
| 20260504220407 | 87 | 308 | 3.0 | 9.0 | 0.00 | 0.00 | 0.00 | 26 | 1005.5 |
| 20260504220309 | 87 | 164 | 3.0 | 9.0 | 0.00 | 0.00 | 0.00 | 25 | 1005.5 |
| 20260504220207 | 87 | 11 | 3.0 | 9.0 | 0.00 | 0.00 | 0.00 | 26 | 1005.5 |
| 20260504220110 | 87 | 65 | 3.0 | 9.0 | 0.00 | 0.00 | 0.00 | 26 | 1005.5 |
| 20260504220006 | 87 | 69 | 3.0 | 9.0 | 0.00 | 0.00 | 0.00 | 25 | 1005.5 |
| 20260504215909 | 87 | 113 | 2.0 | 5.0 | 0.00 | 0.00 | 0.00 | 26 | 1005.5 |
| 20260504215852 | 87 | 5 | 1.0 | 5.0 | 0.00 | 0.00 | 0.00 | 25 | 1005.5 |
| 20260504215841 | 86 | 323 | 2.0 | 5.0 | 0.00 | 0.00 | 0.00 | 25 | 1005.5 |
| 20260504215829 | 86 | 28 | 2.0 | 6.0 | 0.00 | 0.00 | 0.00 | 26 | 1005.5 |
| 20260504215809 | 86 | 299 | 2.0 | 8.0 | 0.00 | 0.00 | 0.00 | 26 | 1005.5 |
| 20260504215757 | 86 | 333 | 1.0 | 8.0 | 0.00 | 0.00 | 0.00 | 25 | 1005.5 |
| 20260504215525 | 86 | 350 | 2.0 | 8.0 | 0.00 | 0.00 | 0.00 | 25 | 1005.5 |
| 20260504214901 | 86 | 351 | 3.0 | 8.0 | 0.00 | 0.00 | 0.00 | 26 | 1005.7 |
| 20260504214804 | 86 | 13 | 5.0 | 8.0 | 0.00 | 0.00 | 0.00 | 26 | 1005.7 |
| 20260504214702 | 86 | 275 | 4.0 | 8.0 | 0.00 | 0.00 | 0.00 | 27 | 1005.7 |
| 20260504214607 | 86 | 313 | 2.0 | 8.0 | 0.00 | 0.00 | 0.00 | 27 | 1005.7 |
| 20260504214457 | 86 | 334 | 3.0 | 8.0 | 0.00 | 0.00 | 0.00 | 26 | 1005.7 |
| 20260504214427 | 86 | 281 | 4.0 | 8.0 | 0.00 | 0.00 | 0.00 | 25 | 1005.6 |
| 20260504214414 | 86 | 294 | 2.0 | 6.0 | 0.00 | 0.00 | 0.00 | 26 | 1005.7 |
| 20260504214054 | 86 | 306 | 3.0 | 6.0 | 0.00 | 0.00 | 0.00 | 27 | 1005.7 |
| 20260504213913 | 86 | 255 | 4.0 | 8.0 | 0.00 | 0.00 | 0.00 | 26 | 1005.8 |
| 20260504213814 | 86 | 329 | 4.0 | 8.0 | 0.00 | 0.00 | 0.00 | 27 | 1005.8 |
| 20260504213716 | 86 | 277 | 3.0 | 8.0 | 0.00 | 0.00 | 0.00 | 25 | 1005.8 |
| 20260504213649 | 86 | 36 | 3.0 | 8.0 | 0.00 | 0.00 | 0.00 | 25 | 1005.9 |
| 20260504213636 | 87 | 0 | 3.0 | 8.0 | 0.00 | 0.00 | 0.00 | 27 | 1005.8 |
| 20260504213623 | 86 | 74 | 1.0 | 8.0 | 0.00 | 0.00 | 0.00 | 26 | 1005.8 |
| 20260504213611 | 86 | 22 | 2.0 | 8.0 | 0.00 | 0.00 | 0.00 | 25 | 1005.8 |
| 20260504213559 | 86 | 11 | 2.0 | 8.0 | 0.00 | 0.00 | 0.00 | 26 | 1005.9 |
| 20260504213538 | 86 | 289 | 2.0 | 8.0 | 0.00 | 0.00 | 0.00 | 26 | 1005.8 |
| 20260504213306 | 86 | 38 | 3.0 | 8.0 | 0.00 | 0.00 | 0.00 | 26 | 1005.8 |
| 20260504213254 | 86 | 164 | 4.0 | 8.0 | 0.00 | 0.00 | 0.00 | 26 | 1005.8 |
| 20260504213243 | 86 | 283 | 4.0 | 7.0 | 0.00 | 0.00 | 0.00 | 25 | 1005.8 |
| 20260504212959 | 86 | 298 | 2.0 | 7.0 | 0.00 | 0.00 | 0.00 | 26 | 1005.8 |
| 20260504212505 | 86 | 308 | 2.0 | 7.0 | 0.00 | 0.00 | 0.00 | 25 | 1005.9 |
| 20260504212443 | 86 | 349 | 4.0 | 7.0 | 0.00 | 0.00 | 0.00 | 26 | 1006.0 |
| 20260504211922 | 86 | 321 | 3.0 | 7.0 | 0.00 | 0.00 | 0.00 | 26 | 1006.0 |
| 20260504211601 | 86 | 290 | 2.0 | 6.0 | 0.00 | 0.00 | 0.00 | 29 | 1006.0 |
| 20260504211502 | 85 | 306 | 2.0 | 5.0 | 0.00 | 0.00 | 0.00 | 28 | 1006.0 |
| 20260504211431 | 85 | 346 | 2.0 | 5.0 | 0.00 | 0.00 | 0.00 | 28 | 1006.0 |
| 20260504211420 | 85 | 16 | 2.0 | 5.0 | 0.00 | 0.00 | 0.00 | 26 | 1006.0 |
| 20260504211058 | 85 | 321 | 2.0 | 5.0 | 0.00 | 0.00 | 0.00 | 27 | 1006.1 |
| 20260504211000 | 85 | 315 | 2.0 | 8.0 | 0.00 | 0.00 | 0.00 | 29 | 1006.1 |
| 20260504210857 | 85 | 313 | 2.0 | 9.0 | 0.00 | 0.00 | 0.00 | 27 | 1006.1 |
| 20260504210757 | 85 | 46 | 2.0 | 9.0 | 0.00 | 0.00 | 0.00 | 27 | 1006.1 |
| 20260504210656 | 85 | 28 | 3.0 | 9.0 | 0.00 | 0.00 | 0.00 | 28 | 1006.2 |
| 20260504210555 | 85 | 309 | 3.0 | 9.0 | 0.00 | 0.00 | 0.00 | 27 | 1006.2 |
| 20260504210454 | 85 | 304 | 3.0 | 9.0 | 0.00 | 0.00 | 0.00 | 30 | 1006.2 |
| 20260504210425 | 85 | 25 | 2.0 | 9.0 | 0.00 | 0.00 | 0.00 | 27 | 1006.2 |
| 20260504210414 | 85 | 0 | 3.0 | 9.0 | 0.00 | 0.00 | 0.00 | 29 | 1006.2 |
| 20260504210051 | 84 | 332 | 4.0 | 9.0 | 0.00 | 0.00 | 0.00 | 27 | 1006.3 |
| 20260504205949 | 85 | 294 | 4.0 | 9.0 | 0.00 | 0.00 | 0.00 | 28 | 1006.2 |
| 20260504205849 | 85 | 327 | 3.0 | 9.0 | 0.00 | 0.00 | 0.00 | 28 | 1006.3 |
| 20260504205748 | 85 | 254 | 3.0 | 9.0 | 0.00 | 0.00 | 0.00 | 27 | 1006.3 |
| 20260504205647 | 85 | 273 | 3.0 | 9.0 | 0.00 | 0.00 | 0.00 | 27 | 1006.3 |
| 20260504205547 | 85 | 15 | 4.0 | 9.0 | 0.00 | 0.00 | 0.00 | 26 | 1006.3 |
| 20260504205447 | 85 | 286 | 5.0 | 9.0 | 0.00 | 0.00 | 0.00 | 28 | 1006.4 |
| 20260504205419 | 85 | 323 | 4.0 | 9.0 | 0.00 | 0.00 | 0.00 | 29 | 1006.4 |
| 20260504205408 | 85 | 288 | 4.0 | 9.0 | 0.00 | 0.00 | 0.00 | 29 | 1006.4 |
| 20260504205051 | 85 | 345 | 2.0 | 8.0 | 0.00 | 0.00 | 0.00 | 29 | 1006.4 |
| 20260504205037 | 84 | 318 | 2.0 | 8.0 | 0.00 | 0.00 | 0.00 | 28 | 1006.4 |
| 20260504205026 | 84 | 0 | 3.0 | 8.0 | 0.00 | 0.00 | 0.00 | 27 | 1006.4 |
| 20260504205014 | 84 | 322 | 4.0 | 8.0 | 0.00 | 0.00 | 0.00 | 26 | 1006.5 |
| 20260504204932 | 84 | 317 | 2.0 | 8.0 | 0.00 | 0.00 | 0.00 | 28 | 1006.5 |
| 20260504204341 | 84 | 321 | 3.0 | 8.0 | 0.00 | 0.00 | 0.00 | 29 | 1006.5 |
| 20260504204306 | 84 | 275 | 3.0 | 7.0 | 0.00 | 0.00 | 0.00 | 29 | 1006.5 |
| 20260504204253 | 84 | 291 | 2.0 | 7.0 | 0.00 | 0.00 | 0.00 | 31 | 1006.6 |
| 20260504204231 | 84 | 347 | 4.0 | 7.0 | 0.00 | 0.00 | 0.00 | 29 | 1006.5 |
| 20260504203958 | 84 | 336 | 2.0 | 7.0 | 0.00 | 0.00 | 0.00 | 30 | 1006.6 |
| 20260504203635 | 84 | 95 | 3.0 | 8.0 | 0.00 | 0.00 | 0.00 | 28 | 1006.6 |
| 20260504203534 | 84 | 305 | 4.0 | 8.0 | 0.00 | 0.00 | 0.00 | 29 | 1006.6 |
| 20260504203507 | 84 | 25 | 4.0 | 8.0 | 0.00 | 0.00 | 0.00 | 28 | 1006.6 |
| 20260504203454 | 84 | 337 | 3.0 | 8.0 | 0.00 | 0.00 | 0.00 | 30 | 1006.6 |
| 20260504203444 | 84 | 346 | 3.0 | 8.0 | 0.00 | 0.00 | 0.00 | 28 | 1006.6 |
| 20260504203429 | 84 | 0 | 3.0 | 8.0 | 0.00 | 0.00 | 0.00 | 30 | 1006.6 |
| 20260504203408 | 84 | 284 | 2.0 | 8.0 | 0.00 | 0.00 | 0.00 | 29 | 1006.7 |
| 20260504203135 | 84 | 323 | 4.0 | 8.0 | 0.00 | 0.00 | 0.00 | 29 | 1006.7 |
| 20260504203123 | 84 | 346 | 3.0 | 8.0 | 0.00 | 0.00 | 0.00 | 29 | 1006.7 |
| 20260504202843 | 84 | 348 | 2.0 | 9.0 | 0.00 | 0.00 | 0.00 | 32 | 1006.6 |
| 20260504202830 | 84 | 292 | 2.0 | 9.0 | 0.00 | 0.00 | 0.00 | 30 | 1006.6 |
| 20260504202029 | 83 | 71 | 5.0 | 11.0 | 0.00 | 0.00 | 0.00 | 30 | 1006.7 |
| 20260504201928 | 83 | 329 | 4.0 | 11.0 | 0.00 | 0.00 | 0.00 | 30 | 1006.7 |
| 20260504201827 | 83 | 5 | 4.0 | 11.0 | 0.00 | 0.00 | 0.00 | 29 | 1006.7 |
| 20260504201726 | 84 | 0 | 4.0 | 11.0 | 0.00 | 0.00 | 0.00 | 30 | 1006.8 |
| 20260504201629 | 84 | 5 | 3.0 | 11.0 | 0.00 | 0.00 | 0.00 | 29 | 1006.8 |
| 20260504201600 | 83 | 331 | 4.0 | 11.0 | 0.00 | 0.00 | 0.00 | 29 | 1006.7 |
| 20260504201546 | 83 | 40 | 5.0 | 11.0 | 0.00 | 0.00 | 0.00 | 28 | 1006.8 |
| 20260504201223 | 84 | 336 | 4.0 | 11.0 | 0.00 | 0.00 | 0.00 | 29 | 1006.8 |
| 20260504201123 | 83 | 317 | 3.0 | 8.0 | 0.00 | 0.00 | 0.00 | 29 | 1006.7 |
| 20260504201054 | 83 | 265 | 3.0 | 8.0 | 0.00 | 0.00 | 0.00 | 28 | 1006.8 |
| 20260504201041 | 83 | 350 | 3.0 | 8.0 | 0.00 | 0.00 | 0.00 | 29 | 1006.8 |
| 20260504200720 | 83 | 337 | 4.0 | 8.0 | 0.00 | 0.00 | 0.00 | 29 | 1006.8 |
| 20260504200619 | 83 | 346 | 4.0 | 8.0 | 0.00 | 0.00 | 0.00 | 29 | 1006.8 |
| 20260504200519 | 83 | 24 | 3.0 | 8.0 | 0.00 | 0.00 | 0.00 | 30 | 1006.8 |
| 20260504200420 | 83 | 298 | 4.0 | 8.0 | 0.00 | 0.00 | 0.00 | 29 | 1006.8 |
| 20260504200317 | 83 | 332 | 4.0 | 8.0 | 0.00 | 0.00 | 0.00 | 29 | 1006.8 |
| 20260504200258 | 83 | 338 | 4.0 | 8.0 | 0.00 | 0.00 | 0.00 | 30 | 1006.8 |
| 20260504200246 | 83 | 5 | 2.0 | 8.0 | 0.00 | 0.00 | 0.00 | 30 | 1006.8 |
| 20260504195946 | 83 | 25 | 4.0 | 8.0 | 0.00 | 0.00 | 0.00 | 31 | 1006.8 |
| 20260504195935 | 83 | 84 | 3.0 | 8.0 | 0.00 | 0.00 | 0.00 | 30 | 1006.8 |
| 20260504195656 | 83 | 9 | 4.0 | 8.0 | 0.00 | 0.00 | 0.00 | 30 | 1006.9 |
| 20260504195633 | 83 | 288 | 4.0 | 8.0 | 0.00 | 0.00 | 0.00 | 31 | 1006.9 |
| 20260504195310 | 83 | 283 | 1.0 | 5.0 | 0.00 | 0.00 | 0.00 | 30 | 1006.9 |
| 20260504195211 | 83 | 277 | 1.0 | 5.0 | 0.00 | 0.00 | 0.00 | 30 | 1006.9 |
| 20260504195147 | 83 | 326 | 1.0 | 5.0 | 0.00 | 0.00 | 0.00 | 29 | 1006.9 |
| 20260504195123 | 83 | 352 | 1.0 | 5.0 | 0.00 | 0.00 | 0.00 | 30 | 1006.9 |
| 20260504195112 | 83 | 321 | 2.0 | 5.0 | 0.00 | 0.00 | 0.00 | 30 | 1006.8 |
| 20260504195101 | 83 | 313 | 3.0 | 5.0 | 0.00 | 0.00 | 0.00 | 30 | 1006.9 |
| 20260504194830 | 83 | 295 | 3.0 | 7.0 | 0.00 | 0.00 | 0.00 | 32 | 1006.9 |
| 20260504194807 | 83 | 17 | 2.0 | 7.0 | 0.00 | 0.00 | 0.00 | 30 | 1006.8 |
| 20260504194753 | 83 | 112 | 2.0 | 7.0 | 0.00 | 0.00 | 0.00 | 30 | 1006.8 |
| 20260504194742 | 83 | 112 | 2.0 | 11.0 | 0.00 | 0.00 | 0.00 | 30 | 1006.8 |
| 20260504193902 | 82 | 296 | 3.0 | 11.0 | 0.00 | 0.00 | 0.00 | 32 | 1006.8 |
| 20260504193801 | 82 | 301 | 3.0 | 11.0 | 0.00 | 0.00 | 0.00 | 32 | 1006.8 |
| 20260504193703 | 82 | 258 | 3.0 | 11.0 | 0.00 | 0.00 | 0.00 | 31 | 1006.8 |
| 20260504193603 | 82 | 325 | 6.0 | 11.0 | 0.00 | 0.00 | 0.00 | 31 | 1006.8 |
| 20260504193500 | 82 | 284 | 6.0 | 11.0 | 0.00 | 0.00 | 0.00 | 30 | 1006.8 |
| 20260504193358 | 82 | 256 | 3.0 | 11.0 | 0.00 | 0.00 | 0.00 | 30 | 1006.8 |
| 20260504193258 | 82 | 258 | 1.0 | 7.0 | 0.00 | 0.00 | 0.00 | 32 | 1006.9 |
| 20260504193158 | 82 | 251 | 1.0 | 4.0 | 0.00 | 0.00 | 0.00 | 31 | 1006.8 |
| 20260504193138 | 82 | 142 | 1.0 | 4.0 | 0.00 | 0.00 | 0.00 | 30 | 1006.9 |
| 20260504193114 | 82 | 205 | 2.0 | 4.0 | 0.00 | 0.00 | 0.00 | 31 | 1007.0 |
| 20260504192753 | 82 | 292 | 2.0 | 4.0 | 0.00 | 0.00 | 0.00 | 33 | 1007.0 |
| 20260504192652 | 82 | 173 | 2.0 | 4.0 | 0.00 | 0.00 | 0.00 | 31 | 1007.0 |
| 20260504192624 | 82 | 238 | 3.0 | 7.0 | 0.00 | 0.00 | 0.00 | 32 | 1007.0 |
| 20260504192559 | 82 | 319 | 2.0 | 7.0 | 0.00 | 0.00 | 0.00 | 32 | 1006.9 |
| 20260504192548 | 81 | 290 | 2.0 | 7.0 | 0.00 | 0.00 | 0.00 | 33 | 1007.0 |
| 20260504192534 | 81 | 280 | 2.0 | 7.0 | 0.00 | 0.00 | 0.00 | 32 | 1007.0 |
| 20260504191948 | 81 | 331 | 3.0 | 7.0 | 0.00 | 0.00 | 0.00 | 32 | 1007.0 |
| 20260504191848 | 81 | 278 | 3.0 | 7.0 | 0.00 | 0.00 | 0.00 | 34 | 1007.1 |
| 20260504191748 | 81 | 288 | 3.0 | 7.0 | 0.00 | 0.00 | 0.00 | 33 | 1007.0 |
| 20260504191649 | 81 | 294 | 2.0 | 7.0 | 0.00 | 0.00 | 0.00 | 33 | 1007.1 |
| 20260504191555 | 81 | 296 | 3.0 | 6.0 | 0.00 | 0.00 | 0.00 | 31 | 1007.1 |
| 20260504191446 | 81 | 0 | 4.0 | 6.0 | 0.00 | 0.00 | 0.00 | 31 | 1007.1 |
| 20260504191343 | 81 | 350 | 4.0 | 6.0 | 0.00 | 0.00 | 0.00 | 32 | 1007.1 |
| 20260504191242 | 81 | 332 | 4.0 | 6.0 | 0.00 | 0.00 | 0.00 | 32 | 1007.1 |
| 20260504191143 | 81 | 351 | 4.0 | 6.0 | 0.00 | 0.00 | 0.00 | 32 | 1007.1 |
| 20260504191050 | 81 | 5 | 4.0 | 6.0 | 0.00 | 0.00 | 0.00 | 33 | 1007.2 |
| 20260504190941 | 81 | 269 | 3.0 | 6.0 | 0.00 | 0.00 | 0.00 | 34 | 1007.2 |
| 20260504190840 | 81 | 318 | 3.0 | 6.0 | 0.00 | 0.00 | 0.00 | 33 | 1007.2 |
| 20260504190740 | 81 | 315 | 3.0 | 6.0 | 0.00 | 0.00 | 0.00 | 32 | 1007.2 |
| 20260504190639 | 81 | 271 | 3.0 | 6.0 | 0.00 | 0.00 | 0.00 | 34 | 1007.2 |
| 20260504190539 | 81 | 301 | 3.0 | 7.0 | 0.00 | 0.00 | 0.00 | 34 | 1007.2 |
| 20260504190438 | 81 | 22 | 3.0 | 7.0 | 0.00 | 0.00 | 0.00 | 34 | 1007.2 |
| 20260504190337 | 81 | 5 | 4.0 | 7.0 | 0.00 | 0.00 | 0.00 | 33 | 1007.3 |
| 20260504190236 | 81 | 347 | 3.0 | 7.0 | 0.00 | 0.00 | 0.00 | 33 | 1007.3 |
| 20260504190139 | 81 | 0 | 3.0 | 7.0 | 0.00 | 0.00 | 0.00 | 33 | 1007.3 |
| 20260504190036 | 81 | 315 | 3.0 | 7.0 | 0.00 | 0.00 | 0.00 | 34 | 1007.3 |
| 20260504185935 | 81 | 346 | 2.0 | 7.0 | 0.00 | 0.00 | 0.00 | 35 | 1007.3 |
| 20260504185836 | 81 | 0 | 3.0 | 7.0 | 0.00 | 0.00 | 0.00 | 35 | 1007.4 |
| 20260504185734 | 80 | 273 | 4.0 | 7.0 | 0.00 | 0.00 | 0.00 | 34 | 1007.4 |
| 20260504185633 | 80 | 261 | 2.0 | 7.0 | 0.00 | 0.00 | 0.00 | 34 | 1007.4 |
| 20260504185533 | 80 | 287 | 1.0 | 6.0 | 0.00 | 0.00 | 0.00 | 37 | 1007.4 |
| 20260504185502 | 80 | 9 | 2.0 | 6.0 | 0.00 | 0.00 | 0.00 | 37 | 1007.4 |
| 20260504185450 | 80 | 71 | 2.0 | 6.0 | 0.00 | 0.00 | 0.00 | 34 | 1007.4 |
| 20260504185131 | 80 | 287 | 2.0 | 6.0 | 0.00 | 0.00 | 0.00 | 34 | 1007.4 |
| 20260504185029 | 80 | 20 | 3.0 | 6.0 | 0.00 | 0.00 | 0.00 | 33 | 1007.5 |
| 20260504184933 | 80 | 346 | 3.0 | 6.0 | 0.00 | 0.00 | 0.00 | 32 | 1007.4 |
| 20260504184829 | 80 | 333 | 4.0 | 8.0 | 0.00 | 0.00 | 0.00 | 32 | 1007.5 |
| 20260504184730 | 80 | 259 | 4.0 | 8.0 | 0.00 | 0.00 | 0.00 | 33 | 1007.4 |
| 20260504184629 | 80 | 275 | 4.0 | 8.0 | 0.00 | 0.00 | 0.00 | 35 | 1007.4 |
| 20260504184531 | 80 | 269 | 2.0 | 8.0 | 0.00 | 0.00 | 0.00 | 35 | 1007.4 |
| 20260504184446 | 80 | 267 | 2.0 | 8.0 | 0.00 | 0.00 | 0.00 | 37 | 1007.4 |
| 20260504184433 | 80 | 330 | 2.0 | 8.0 | 0.00 | 0.00 | 0.00 | 36 | 1007.5 |
| 20260504184421 | 80 | 296 | 2.0 | 8.0 | 0.00 | 0.00 | 0.00 | 37 | 1007.4 |
| 20260504184029 | 80 | 253 | 3.0 | 8.0 | 0.00 | 0.00 | 0.00 | 36 | 1007.5 |
| 20260504183930 | 80 | 289 | 3.0 | 8.0 | 0.00 | 0.00 | 0.00 | 37 | 1007.5 |
| 20260504183830 | 80 | 343 | 2.0 | 7.0 | 0.00 | 0.00 | 0.00 | 36 | 1007.5 |
| 20260504183733 | 80 | 287 | 2.0 | 7.0 | 0.00 | 0.00 | 0.00 | 35 | 1007.5 |
| 20260504183714 | 80 | 340 | 2.0 | 7.0 | 0.00 | 0.00 | 0.00 | 37 | 1007.5 |
| 20260504183657 | 80 | 333 | 2.0 | 7.0 | 0.00 | 0.00 | 0.00 | 38 | 1007.5 |
| 20260504183334 | 79 | 292 | 2.0 | 7.0 | 0.00 | 0.00 | 0.00 | 38 | 1007.5 |
| 20260504183228 | 79 | 16 | 3.0 | 7.0 | 0.00 | 0.00 | 0.00 | 37 | 1007.5 |
| 20260504183133 | 79 | 5 | 4.0 | 7.0 | 0.00 | 0.00 | 0.00 | 39 | 1007.5 |
| 20260504183038 | 79 | 333 | 4.0 | 7.0 | 0.00 | 0.00 | 0.00 | 38 | 1007.5 |
| 20260504182933 | 79 | 0 | 2.0 | 5.0 | 0.00 | 0.00 | 0.00 | 40 | 1007.6 |
| 20260504182900 | 79 | 0 | 2.0 | 5.0 | 0.00 | 0.00 | 0.00 | 38 | 1007.5 |
| 20260504182849 | 79 | 59 | 2.0 | 5.0 | 0.00 | 0.00 | 0.00 | 38 | 1007.6 |
| 20260504182541 | 78 | 15 | 1.0 | 5.0 | 0.00 | 0.00 | 0.00 | 40 | 1007.6 |
| 20260504182425 | 78 | 76 | 2.0 | 5.0 | 0.00 | 0.00 | 0.00 | 39 | 1007.5 |
| 20260504182326 | 78 | 286 | 3.0 | 5.0 | 0.00 | 0.00 | 0.00 | 39 | 1007.6 |
| 20260504182224 | 78 | 5 | 3.0 | 5.0 | 0.00 | 0.00 | 0.00 | 39 | 1007.6 |
| 20260504182127 | 78 | 343 | 2.0 | 5.0 | 0.00 | 0.00 | 0.00 | 39 | 1007.6 |
| 20260504182022 | 78 | 9 | 1.0 | 5.0 | 0.00 | 0.00 | 0.00 | 41 | 1007.5 |
| 20260504181924 | 78 | 209 | 2.0 | 8.0 | 0.00 | 0.00 | 0.00 | 39 | 1007.5 |
| 20260504181822 | 78 | 0 | 2.0 | 8.0 | 0.00 | 0.00 | 0.00 | 39 | 1007.5 |
| 20260504181726 | 78 | 314 | 3.0 | 8.0 | 0.00 | 0.00 | 0.00 | 39 | 1007.6 |
| 20260504181620 | 78 | 344 | 2.0 | 8.0 | 0.00 | 0.00 | 0.00 | 39 | 1007.6 |
| 20260504181521 | 78 | 315 | 3.0 | 8.0 | 0.00 | 0.00 | 0.00 | 39 | 1007.6 |
| 20260504181420 | 78 | 327 | 2.0 | 8.0 | 0.00 | 0.00 | 0.00 | 38 | 1007.6 |
| 20260504181319 | 77 | 321 | 2.0 | 8.0 | 0.00 | 0.00 | 0.00 | 39 | 1007.6 |
| 20260504181242 | 77 | 13 | 3.0 | 8.0 | 0.00 | 0.00 | 0.00 | 38 | 1007.6 |
| 20260504181118 | 77 | 0 | 3.0 | 8.0 | 0.00 | 0.00 | 0.00 | 38 | 1007.6 |
| 20260504181017 | 78 | 12 | 4.0 | 8.0 | 0.00 | 0.00 | 0.00 | 38 | 1007.6 |
| 20260504180917 | 78 | 342 | 3.0 | 6.0 | 0.00 | 0.00 | 0.00 | 39 | 1007.7 |
| 20260504180819 | 78 | 285 | 2.0 | 5.0 | 0.00 | 0.00 | 0.00 | 38 | 1007.7 |
| 20260504180715 | 78 | 0 | 1.0 | 5.0 | 0.00 | 0.00 | 0.00 | 41 | 1007.6 |
| 20260504180614 | 78 | 22 | 1.0 | 5.0 | 0.00 | 0.00 | 0.00 | 41 | 1007.6 |
| 20260504180515 | 77 | 60 | 2.0 | 5.0 | 0.00 | 0.00 | 0.00 | 42 | 1007.6 |
| 20260504180441 | 77 | 352 | 2.0 | 5.0 | 0.00 | 0.00 | 0.00 | 40 | 1007.6 |
| 20260504180428 | 77 | 352 | 1.0 | 5.0 | 0.00 | 0.00 | 0.00 | 41 | 1007.6 |
| 20260504180007 | 77 | 352 | 3.0 | 6.0 | 0.00 | 0.00 | 0.00 | 40 | 1007.6 |
| 20260504175953 | 77 | 9 | 2.0 | 6.0 | 0.00 | 0.00 | 0.00 | 40 | 1007.6 |
| 20260504175941 | 77 | 16 | 1.0 | 6.0 | 0.00 | 0.00 | 0.00 | 40 | 1007.6 |
| 20260504175930 | 77 | 5 | 2.0 | 6.0 | 0.00 | 0.00 | 0.00 | 40 | 1007.6 |
| 20260504175917 | 77 | 277 | 3.0 | 6.0 | 0.00 | 0.00 | 0.00 | 40 | 1007.6 |
| 20260504175855 | 77 | 352 | 3.0 | 6.0 | 0.00 | 0.00 | 0.00 | 40 | 1007.6 |
| 20260504175842 | 77 | 340 | 2.0 | 6.0 | 0.00 | 0.00 | 0.00 | 40 | 1007.6 |
| 20260504175831 | 76 | 9 | 2.0 | 6.0 | 0.00 | 0.00 | 0.00 | 42 | 1007.6 |
| 20260504174813 | 76 | 31 | 2.0 | 7.0 | 0.00 | 0.00 | 0.00 | 40 | 1007.6 |
| 20260504174802 | 76 | 26 | 2.0 | 7.0 | 0.00 | 0.00 | 0.00 | 41 | 1007.6 |
| 20260504174750 | 76 | 302 | 2.0 | 7.0 | 0.00 | 0.00 | 0.00 | 43 | 1007.6 |
| 20260504174501 | 75 | 290 | 2.0 | 7.0 | 0.00 | 0.00 | 0.00 | 41 | 1007.6 |
| 20260504174450 | 75 | 304 | 1.0 | 7.0 | 0.00 | 0.00 | 0.00 | 43 | 1007.6 |
| 20260504174102 | 75 | 349 | 4.0 | 7.0 | 0.00 | 0.00 | 0.00 | 41 | 1007.6 |
| 20260504174001 | 75 | 325 | 4.0 | 7.0 | 0.00 | 0.00 | 0.00 | 41 | 1007.6 |
| 20260504173902 | 76 | 38 | 2.0 | 7.0 | 0.00 | 0.00 | 0.00 | 41 | 1007.7 |
| 20260504173800 | 76 | 346 | 2.0 | 5.0 | 0.00 | 0.00 | 0.00 | 42 | 1007.7 |
| 20260504173703 | 76 | 324 | 2.0 | 5.0 | 0.00 | 0.00 | 0.00 | 42 | 1007.6 |
| 20260504173631 | 76 | 333 | 2.0 | 5.0 | 0.00 | 0.00 | 0.00 | 41 | 1007.7 |
| 20260504173615 | 76 | 340 | 2.0 | 5.0 | 0.00 | 0.00 | 0.00 | 43 | 1007.7 |
| 20260504173558 | 75 | 5 | 3.0 | 5.0 | 0.00 | 0.00 | 0.00 | 43 | 1007.7 |
| 20260504173545 | 75 | 46 | 2.0 | 5.0 | 0.00 | 0.00 | 0.00 | 43 | 1007.7 |
| 20260504173048 | 75 | 23 | 2.0 | 5.0 | 0.00 | 0.00 | 0.00 | 40 | 1007.6 |
| 20260504173023 | 75 | 347 | 2.0 | 4.0 | 0.00 | 0.00 | 0.00 | 41 | 1007.7 |
| 20260504172704 | 75 | 289 | 2.0 | 5.0 | 0.00 | 0.00 | 0.00 | 41 | 1007.7 |
| 20260504172604 | 75 | 275 | 2.0 | 5.0 | 0.00 | 0.00 | 0.00 | 40 | 1007.7 |
| 20260504172549 | 75 | 352 | 2.0 | 5.0 | 0.00 | 0.00 | 0.00 | 40 | 1007.7 |
| 20260504172525 | 75 | 344 | 2.0 | 5.0 | 0.00 | 0.00 | 0.00 | 41 | 1007.7 |
| 20260504172201 | 75 | 71 | 1.0 | 5.0 | 0.00 | 0.00 | 0.00 | 43 | 1007.7 |
| 20260504172102 | 75 | 352 | 2.0 | 5.0 | 0.00 | 0.00 | 0.00 | 43 | 1007.7 |
| 20260504172012 | 74 | 328 | 2.0 | 5.0 | 0.00 | 0.00 | 0.00 | 44 | 1007.7 |
| 20260504171903 | 74 | 46 | 2.0 | 5.0 | 0.00 | 0.00 | 0.00 | 42 | 1007.7 |
| 20260504171801 | 74 | 25 | 2.0 | 5.0 | 0.00 | 0.00 | 0.00 | 42 | 1007.7 |
| 20260504171702 | 74 | 25 | 2.0 | 4.0 | 0.00 | 0.00 | 0.00 | 41 | 1007.7 |
| 20260504171604 | 74 | 30 | 2.0 | 4.0 | 0.00 | 0.00 | 0.00 | 43 | 1007.7 |
| 20260504171546 | 74 | 24 | 2.0 | 4.0 | 0.00 | 0.00 | 0.00 | 43 | 1007.7 |
| 20260504171520 | 74 | 58 | 2.0 | 5.0 | 0.00 | 0.00 | 0.00 | 43 | 1007.7 |
| 20260504171509 | 74 | 76 | 1.0 | 5.0 | 0.00 | 0.00 | 0.00 | 45 | 1007.7 |
| 20260504171456 | 74 | 341 | 1.0 | 5.0 | 0.00 | 0.00 | 0.00 | 45 | 1007.7 |
| 20260504171226 | 74 | 72 | 2.0 | 5.0 | 0.00 | 0.00 | 0.00 | 45 | 1007.7 |
| 20260504171133 | 74 | 47 | 1.0 | 5.0 | 0.00 | 0.00 | 0.00 | 46 | 1007.7 |
| 20260504170902 | 74 | 31 | 2.0 | 5.0 | 0.00 | 0.00 | 0.00 | 45 | 1007.7 |
| 20260504170848 | 73 | 341 | 2.0 | 5.0 | 0.00 | 0.00 | 0.00 | 46 | 1007.7 |
| 20260504170257 | 73 | 180 | 1.0 | 3.0 | 0.00 | 0.00 | 0.00 | 46 | 1007.7 |
| 20260504170157 | 73 | 245 | 1.0 | 3.0 | 0.00 | 0.00 | 0.00 | 46 | 1007.7 |
| 20260504160402 | 68 | 292 | 2.0 | 4.0 | 0.00 | 0.00 | 0.00 | 55 | 1007.8 |
| 20260504160301 | 68 | 5 | 2.0 | 4.0 | 0.00 | 0.00 | 0.00 | 55 | 1007.8 |
| 20260504160201 | 68 | 344 | 2.0 | 4.0 | 0.00 | 0.00 | 0.00 | 54 | 1007.8 |
| 20260504160105 | 68 | 48 | 2.0 | 4.0 | 0.00 | 0.00 | 0.00 | 55 | 1007.8 |
| 20260504150944 | 63 | 346 | 0.0 | 3.0 | 0.00 | 0.00 | 0.00 | 67 | 1007.9 |
| 20260504150845 | 63 | 342 | 1.0 | 3.0 | 0.00 | 0.00 | 0.00 | 66 | 1007.9 |
| 20260504150746 | 63 | 334 | 1.0 | 3.0 | 0.00 | 0.00 | 0.00 | 66 | 1007.9 |
| 20260504150644 | 63 | 338 | 1.0 | 3.0 | 0.00 | 0.00 | 0.00 | 66 | 1007.9 |
| 20260504150542 | 63 | 329 | 1.0 | 3.0 | 0.00 | 0.00 | 0.00 | 66 | 1007.9 |
| 20260504150441 | 63 | 13 | 1.0 | 2.0 | 0.00 | 0.00 | 0.00 | 67 | 1007.9 |
| 20260504150408 | 62 | 15 | 1.0 | 3.0 | 0.00 | 0.00 | 0.00 | 68 | 1007.9 |
| 20260504150356 | 62 | 78 | 1.0 | 3.0 | 0.00 | 0.00 | 0.00 | 68 | 1007.8 |
| 20260504141301 | 58 | 322 | 1.0 | 3.0 | 0.00 | 0.00 | 0.00 | 76 | 1007.6 |
| 20260504141245 | 58 | 322 | 1.0 | 3.0 | 0.00 | 0.00 | 0.00 | 76 | 1007.6 |
| 20260504141223 | 58 | 321 | 1.0 | 3.0 | 0.00 | 0.00 | 0.00 | 76 | 1007.6 |
| 20260504140925 | 57 | 0 | 1.0 | 3.0 | 0.00 | 0.00 | 0.00 | 76 | 1007.6 |
| 20260504140912 | 57 | 352 | 0.0 | 3.0 | 0.00 | 0.00 | 0.00 | 77 | 1007.5 |
| 20260504140901 | 57 | 339 | 0.0 | 0.0 | 0.00 | 0.00 | 0.00 | 78 | 1007.6 |
| 20260504140503 | 56 | 339 | 0.0 | 0.0 | 0.00 | 0.00 | 0.00 | 78 | 1007.5 |
| 20260504140403 | 56 | 339 | 0.0 | 0.0 | 0.00 | 0.00 | 0.00 | 79 | 1007.5 |
| 20260504140343 | 56 | 339 | 0.0 | 1.0 | 0.00 | 0.00 | 0.00 | 78 | 1007.5 |
| 20260504140332 | 56 | 339 | 0.0 | 2.0 | 0.00 | 0.00 | 0.00 | 79 | 1007.5 |
| 20260504130255 | 52 | 0 | 0.0 | 0.0 | 0.00 | 0.00 | 0.00 | 85 | 1007.1 |
| 20260504130143 | 52 | 0 | 0.0 | 0.0 | 0.00 | 0.00 | 0.00 | 84 | 1007.1 |
| 20260504110634 | 55 | 109 | 0.0 | 0.0 | 0.00 | 0.00 | 0.00 | 79 | 1006.8 |
| 20260504110611 | 55 | 109 | 0.0 | 0.0 | 0.00 | 0.00 | 0.00 | 79 | 1006.8 |
| 20260504110603 | 55 | 109 | 0.0 | 0.0 | 0.00 | 0.00 | 0.00 | 79 | 1006.8 |
| 20260504110230 | 55 | 109 | 0.0 | 0.0 | 0.00 | 0.00 | 0.00 | 79 | 1006.8 |
| 20260504110129 | 55 | 109 | 0.0 | 0.0 | 0.00 | 0.00 | 0.00 | 79 | 1006.8 |
| 20260504100603 | 57 | 109 | 0.0 | 0.0 | 0.00 | 0.00 | 0.00 | 72 | 1006.8 |
| 20260504100504 | 57 | 109 | 0.0 | 0.0 | 0.00 | 0.00 | 0.00 | 72 | 1006.8 |
| 20260504100402 | 57 | 109 | 0.0 | 0.0 | 0.00 | 0.00 | 0.00 | 72 | 1006.8 |
| 20260504100320 | 57 | 109 | 0.0 | 0.0 | 0.00 | 0.00 | 0.00 | 72 | 1006.8 |
| 20260504100310 | 58 | 109 | 0.0 | 0.0 | 0.00 | 0.00 | 0.00 | 72 | 1006.8 |
| 20260504100258 | 58 | 109 | 0.0 | 0.0 | 0.00 | 0.00 | 0.00 | 71 | 1006.8 |
| 20260504090142 | 60 | 98 | 1.0 | 2.0 | 0.00 | 0.00 | 0.00 | 66 | 1006.7 |
| 20260504090132 | 60 | 98 | 1.0 | 2.0 | 0.00 | 0.00 | 0.00 | 66 | 1006.6 |
| 20260504090120 | 60 | 98 | 0.0 | 2.0 | 0.00 | 0.00 | 0.00 | 66 | 1006.6 |
| 20260504081754 | 62 | 256 | 1.0 | 3.0 | 0.00 | 0.00 | 0.00 | 61 | 1006.7 |
| 20260504081521 | 62 | 122 | 0.0 | 4.0 | 0.00 | 0.00 | 0.00 | 61 | 1006.7 |
| 20260504081202 | 62 | 121 | 1.0 | 4.0 | 0.00 | 0.00 | 0.00 | 61 | 1006.6 |
| 20260504081101 | 62 | 109 | 1.0 | 4.0 | 0.00 | 0.00 | 0.00 | 61 | 1006.7 |
| 20260504081002 | 62 | 161 | 1.0 | 4.0 | 0.00 | 0.00 | 0.00 | 60 | 1006.7 |
| 20260504080902 | 62 | 173 | 2.0 | 4.0 | 0.00 | 0.00 | 0.00 | 60 | 1006.7 |
| 20260504080802 | 62 | 173 | 2.0 | 4.0 | 0.00 | 0.00 | 0.00 | 60 | 1006.7 |
| 20260504080701 | 62 | 153 | 3.0 | 4.0 | 0.00 | 0.00 | 0.00 | 60 | 1006.7 |
| 20260504080636 | 62 | 171 | 2.0 | 4.0 | 0.00 | 0.00 | 0.00 | 60 | 1006.7 |
| 20260504080622 | 62 | 171 | 2.0 | 4.0 | 0.00 | 0.00 | 0.00 | 60 | 1006.7 |
| 20260504080301 | 62 | 207 | 2.0 | 4.0 | 0.00 | 0.00 | 0.00 | 60 | 1006.7 |
| 20260504080204 | 62 | 178 | 3.0 | 4.0 | 0.00 | 0.00 | 0.00 | 60 | 1006.7 |
| 20260504070330 | 67 | 236 | 0.0 | 5.0 | 0.00 | 0.00 | 0.00 | 43 | 1006.7 |
| 20260504070228 | 67 | 163 | 0.0 | 5.0 | 0.00 | 0.00 | 0.00 | 43 | 1006.7 |
| 20260504070130 | 67 | 164 | 0.0 | 5.0 | 0.00 | 0.00 | 0.00 | 43 | 1006.7 |